Year,Month,Day,Hour,Minute,Value (Times are PST for insolation in W/m^2)
2019,03,29,00,00,0.00
2019,03,29,00,01,0.00
2019,03,29,00,02,0.00
2019,03,29,00,03,0.00
2019,03,29,00,04,0.00
2019,03,29,00,05,0.00
2019,03,29,00,06,0.00
2019,03,29,00,07,0.00
2019,03,29,00,08,0.00
2019,03,29,00,09,0.00
2019,03,29,00,10,0.00
2019,03,29,00,11,0.00
2019,03,29,00,12,0.00
2019,03,29,00,13,0.00
2019,03,29,00,14,0.00
2019,03,29,00,15,0.00
2019,03,29,00,16,0.00
2019,03,29,00,17,0.00
2019,03,29,00,18,0.00
2019,03,29,00,19,0.00
2019,03,29,00,20,0.00
2019,03,29,00,21,0.00
2019,03,29,00,22,0.00
2019,03,29,00,23,0.00
2019,03,29,00,24,0.00
2019,03,29,00,25,0.00
2019,03,29,00,26,0.00
2019,03,29,00,27,0.00
2019,03,29,00,28,0.00
2019,03,29,00,29,0.00
2019,03,29,00,30,0.00
2019,03,29,00,31,0.00
2019,03,29,00,32,0.00
2019,03,29,00,33,0.00
2019,03,29,00,34,0.00
2019,03,29,00,35,0.00
2019,03,29,00,36,0.00
2019,03,29,00,37,0.00
2019,03,29,00,38,0.00
2019,03,29,00,39,0.00
2019,03,29,00,40,0.00
2019,03,29,00,41,0.00
2019,03,29,00,42,0.00
2019,03,29,00,43,0.00
2019,03,29,00,44,0.00
2019,03,29,00,45,0.00
2019,03,29,00,46,0.00
2019,03,29,00,47,0.00
2019,03,29,00,48,0.00
2019,03,29,00,49,0.00
2019,03,29,00,50,0.00
2019,03,29,00,51,0.00
2019,03,29,00,52,0.00
2019,03,29,00,53,0.00
2019,03,29,00,54,0.00
2019,03,29,00,55,0.00
2019,03,29,00,56,0.00
2019,03,29,00,57,0.00
2019,03,29,00,58,0.00
2019,03,29,00,59,0.00
2019,03,29,01,00,0.00
2019,03,29,01,01,0.00
2019,03,29,01,02,0.00
2019,03,29,01,03,0.00
2019,03,29,01,04,0.00
2019,03,29,01,05,0.00
2019,03,29,01,06,0.00
2019,03,29,01,07,0.00
2019,03,29,01,08,0.00
2019,03,29,01,09,0.00
2019,03,29,01,10,0.00
2019,03,29,01,11,0.00
2019,03,29,01,12,0.00
2019,03,29,01,13,0.00
2019,03,29,01,14,0.00
2019,03,29,01,15,0.00
2019,03,29,01,16,0.00
2019,03,29,01,17,0.00
2019,03,29,01,18,0.00
2019,03,29,01,19,0.00
2019,03,29,01,20,0.00
2019,03,29,01,21,0.00
2019,03,29,01,22,0.00
2019,03,29,01,23,0.00
2019,03,29,01,24,0.00
2019,03,29,01,25,0.00
2019,03,29,01,26,0.00
2019,03,29,01,27,0.00
2019,03,29,01,28,0.00
2019,03,29,01,29,0.00
2019,03,29,01,30,0.00
2019,03,29,01,31,0.00
2019,03,29,01,32,0.00
2019,03,29,01,33,0.00
2019,03,29,01,34,0.00
2019,03,29,01,35,0.00
2019,03,29,01,36,0.00
2019,03,29,01,37,0.00
2019,03,29,01,38,0.00
2019,03,29,01,39,0.00
2019,03,29,01,40,0.00
2019,03,29,01,41,0.00
2019,03,29,01,42,0.00
2019,03,29,01,43,0.00
2019,03,29,01,44,0.00
2019,03,29,01,45,0.00
2019,03,29,01,46,0.00
2019,03,29,01,47,0.00
2019,03,29,01,48,0.00
2019,03,29,01,49,0.00
2019,03,29,01,50,0.00
2019,03,29,01,51,0.00
2019,03,29,01,52,0.00
2019,03,29,01,53,0.00
2019,03,29,01,54,0.00
2019,03,29,01,55,0.00
2019,03,29,01,56,0.00
2019,03,29,01,57,0.00
2019,03,29,01,58,0.00
2019,03,29,01,59,0.00
2019,03,29,02,00,0.00
2019,03,29,02,01,0.00
2019,03,29,02,02,0.00
2019,03,29,02,03,0.00
2019,03,29,02,04,0.00
2019,03,29,02,05,0.00
2019,03,29,02,06,0.00
2019,03,29,02,07,0.00
2019,03,29,02,08,0.00
2019,03,29,02,09,0.00
2019,03,29,02,10,0.00
2019,03,29,02,11,0.00
2019,03,29,02,12,0.00
2019,03,29,02,13,0.00
2019,03,29,02,14,0.00
2019,03,29,02,15,0.00
2019,03,29,02,16,0.00
2019,03,29,02,17,0.00
2019,03,29,02,18,0.00
2019,03,29,02,19,0.00
2019,03,29,02,20,0.00
2019,03,29,02,21,0.00
2019,03,29,02,22,0.00
2019,03,29,02,23,0.00
2019,03,29,02,24,0.00
2019,03,29,02,25,0.00
2019,03,29,02,26,0.00
2019,03,29,02,27,0.00
2019,03,29,02,28,0.00
2019,03,29,02,29,0.00
2019,03,29,02,30,0.00
2019,03,29,02,31,0.00
2019,03,29,02,32,0.00
2019,03,29,02,33,0.00
2019,03,29,02,34,0.00
2019,03,29,02,35,0.00
2019,03,29,02,36,0.00
2019,03,29,02,37,0.00
2019,03,29,02,38,0.00
2019,03,29,02,39,0.00
2019,03,29,02,40,0.00
2019,03,29,02,41,0.00
2019,03,29,02,42,0.00
2019,03,29,02,43,0.00
2019,03,29,02,44,0.00
2019,03,29,02,45,0.00
2019,03,29,02,46,0.00
2019,03,29,02,47,0.00
2019,03,29,02,48,0.00
2019,03,29,02,49,0.00
2019,03,29,02,50,0.00
2019,03,29,02,51,0.00
2019,03,29,02,52,0.00
2019,03,29,02,53,0.00
2019,03,29,02,54,0.00
2019,03,29,02,55,0.00
2019,03,29,02,56,0.00
2019,03,29,02,57,0.00
2019,03,29,02,58,0.00
2019,03,29,02,59,0.00
2019,03,29,03,00,0.00
2019,03,29,03,01,0.00
2019,03,29,03,02,0.00
2019,03,29,03,03,0.00
2019,03,29,03,04,0.00
2019,03,29,03,05,0.00
2019,03,29,03,06,0.00
2019,03,29,03,07,0.00
2019,03,29,03,08,0.00
2019,03,29,03,09,0.00
2019,03,29,03,10,0.00
2019,03,29,03,11,0.00
2019,03,29,03,12,0.00
2019,03,29,03,13,0.00
2019,03,29,03,14,0.00
2019,03,29,03,15,0.00
2019,03,29,03,16,0.00
2019,03,29,03,17,0.00
2019,03,29,03,18,0.00
2019,03,29,03,19,0.00
2019,03,29,03,20,0.00
2019,03,29,03,21,0.00
2019,03,29,03,22,0.00
2019,03,29,03,23,0.00
2019,03,29,03,24,0.00
2019,03,29,03,25,0.00
2019,03,29,03,26,0.00
2019,03,29,03,27,0.00
2019,03,29,03,28,0.00
2019,03,29,03,29,0.00
2019,03,29,03,30,0.00
2019,03,29,03,31,0.00
2019,03,29,03,32,0.00
2019,03,29,03,33,0.00
2019,03,29,03,34,0.00
2019,03,29,03,35,0.00
2019,03,29,03,36,0.00
2019,03,29,03,37,0.00
2019,03,29,03,38,0.00
2019,03,29,03,39,0.00
2019,03,29,03,40,0.00
2019,03,29,03,41,0.00
2019,03,29,03,42,0.00
2019,03,29,03,43,0.00
2019,03,29,03,44,0.00
2019,03,29,03,45,0.00
2019,03,29,03,46,0.00
2019,03,29,03,47,0.00
2019,03,29,03,48,0.00
2019,03,29,03,49,0.00
2019,03,29,03,50,0.00
2019,03,29,03,51,0.00
2019,03,29,03,52,0.00
2019,03,29,03,53,0.00
2019,03,29,03,54,0.00
2019,03,29,03,55,0.00
2019,03,29,03,56,0.00
2019,03,29,03,57,0.00
2019,03,29,03,58,0.00
2019,03,29,03,59,0.00
2019,03,29,04,00,0.00
2019,03,29,04,01,0.00
2019,03,29,04,02,0.00
2019,03,29,04,03,0.00
2019,03,29,04,04,0.00
2019,03,29,04,05,0.00
2019,03,29,04,06,0.00
2019,03,29,04,07,0.00
2019,03,29,04,08,0.00
2019,03,29,04,09,0.00
2019,03,29,04,10,0.00
2019,03,29,04,11,0.00
2019,03,29,04,12,0.00
2019,03,29,04,13,0.00
2019,03,29,04,14,0.00
2019,03,29,04,15,0.00
2019,03,29,04,16,0.00
2019,03,29,04,17,0.00
2019,03,29,04,18,0.00
2019,03,29,04,19,0.00
2019,03,29,04,20,0.00
2019,03,29,04,21,0.00
2019,03,29,04,22,0.00
2019,03,29,04,23,0.00
2019,03,29,04,24,0.00
2019,03,29,04,25,0.00
2019,03,29,04,26,0.00
2019,03,29,04,27,0.00
2019,03,29,04,28,0.00
2019,03,29,04,29,0.00
2019,03,29,04,30,0.00
2019,03,29,04,31,0.00
2019,03,29,04,32,0.00
2019,03,29,04,33,0.00
2019,03,29,04,34,0.00
2019,03,29,04,35,0.00
2019,03,29,04,36,0.00
2019,03,29,04,37,0.00
2019,03,29,04,38,0.00
2019,03,29,04,39,0.00
2019,03,29,04,40,0.00
2019,03,29,04,41,0.00
2019,03,29,04,42,0.00
2019,03,29,04,43,0.00
2019,03,29,04,44,0.00
2019,03,29,04,45,0.00
2019,03,29,04,46,0.00
2019,03,29,04,47,0.00
2019,03,29,04,48,0.00
2019,03,29,04,49,0.00
2019,03,29,04,50,0.00
2019,03,29,04,51,0.00
2019,03,29,04,52,0.00
2019,03,29,04,53,0.00
2019,03,29,04,54,0.00
2019,03,29,04,55,0.00
2019,03,29,04,56,0.00
2019,03,29,04,57,0.00
2019,03,29,04,58,0.00
2019,03,29,04,59,0.00
2019,03,29,05,00,0.00
2019,03,29,05,01,0.00
2019,03,29,05,02,0.00
2019,03,29,05,03,0.00
2019,03,29,05,04,0.00
2019,03,29,05,05,0.00
2019,03,29,05,06,0.00
2019,03,29,05,07,0.00
2019,03,29,05,08,0.00
2019,03,29,05,09,0.00
2019,03,29,05,10,0.00
2019,03,29,05,11,0.00
2019,03,29,05,12,0.00
2019,03,29,05,13,0.00
2019,03,29,05,14,0.00
2019,03,29,05,15,0.00
2019,03,29,05,16,0.00
2019,03,29,05,17,0.00
2019,03,29,05,18,0.00
2019,03,29,05,19,0.00
2019,03,29,05,20,0.00
2019,03,29,05,21,0.00
2019,03,29,05,22,0.00
2019,03,29,05,23,0.00
2019,03,29,05,24,0.00
2019,03,29,05,25,0.00
2019,03,29,05,26,0.00
2019,03,29,05,27,0.00
2019,03,29,05,28,0.00
2019,03,29,05,29,0.00
2019,03,29,05,30,0.00
2019,03,29,05,31,0.00
2019,03,29,05,32,0.00
2019,03,29,05,33,0.00
2019,03,29,05,34,0.00
2019,03,29,05,35,0.00
2019,03,29,05,36,0.00
2019,03,29,05,37,0.00
2019,03,29,05,38,0.00
2019,03,29,05,39,0.00
2019,03,29,05,40,0.00
2019,03,29,05,41,0.00
2019,03,29,05,42,0.00
2019,03,29,05,43,0.00
2019,03,29,05,44,0.00
2019,03,29,05,45,0.00
2019,03,29,05,46,0.00
2019,03,29,05,47,0.00
2019,03,29,05,48,0.00
2019,03,29,05,49,0.00
2019,03,29,05,50,0.00
2019,03,29,05,51,0.00
2019,03,29,05,52,0.00
2019,03,29,05,53,0.00
2019,03,29,05,54,0.00
2019,03,29,05,55,0.00
2019,03,29,05,56,0.00
2019,03,29,05,57,0.00
2019,03,29,05,58,0.00
2019,03,29,05,59,0.00
2019,03,29,06,00,0.00
2019,03,29,06,01,0.00
2019,03,29,06,02,0.00
2019,03,29,06,03,0.00
2019,03,29,06,04,0.00
2019,03,29,06,05,0.00
2019,03,29,06,06,0.00
2019,03,29,06,07,0.00
2019,03,29,06,08,0.00
2019,03,29,06,09,0.00
2019,03,29,06,10,0.00
2019,03,29,06,11,0.00
2019,03,29,06,12,0.00
2019,03,29,06,13,0.00
2019,03,29,06,14,0.00
2019,03,29,06,15,0.00
2019,03,29,06,16,0.00
2019,03,29,06,17,0.00
2019,03,29,06,18,0.00
2019,03,29,06,19,0.00
2019,03,29,06,20,0.00
2019,03,29,06,21,0.00
2019,03,29,06,22,0.00
2019,03,29,06,23,0.00
2019,03,29,06,24,0.00
2019,03,29,06,25,0.00
2019,03,29,06,26,0.00
2019,03,29,06,27,0.00
2019,03,29,06,28,0.00
2019,03,29,06,29,0.00
2019,03,29,06,30,0.00
2019,03,29,06,31,0.00
2019,03,29,06,32,0.00
2019,03,29,06,33,0.00
2019,03,29,06,34,0.00
2019,03,29,06,35,0.00
2019,03,29,06,36,0.00
2019,03,29,06,37,0.00
2019,03,29,06,38,0.00
2019,03,29,06,39,0.00
2019,03,29,06,40,0.00
2019,03,29,06,41,0.00
2019,03,29,06,42,0.00
2019,03,29,06,43,0.00
2019,03,29,06,44,0.00
2019,03,29,06,45,0.00
2019,03,29,06,46,0.00
2019,03,29,06,47,0.00
2019,03,29,06,48,0.00
2019,03,29,06,49,0.00
2019,03,29,06,50,0.00
2019,03,29,06,51,0.00
2019,03,29,06,52,0.00
2019,03,29,06,53,0.00
2019,03,29,06,54,0.00
2019,03,29,06,55,0.00
2019,03,29,06,56,0.00
2019,03,29,06,57,0.00
2019,03,29,06,58,0.00
2019,03,29,06,59,0.00
2019,03,29,07,00,0.00
2019,03,29,07,01,0.00
2019,03,29,07,02,0.00
2019,03,29,07,03,0.00
2019,03,29,07,04,0.00
2019,03,29,07,05,0.00
2019,03,29,07,06,0.00
2019,03,29,07,07,1.30
2019,03,29,07,08,5.00
2019,03,29,07,09,5.00
2019,03,29,07,10,5.00
2019,03,29,07,11,5.00
2019,03,29,07,12,6.80
2019,03,29,07,13,7.00
2019,03,29,07,14,7.00
2019,03,29,07,15,7.00
2019,03,29,07,16,8.10
2019,03,29,07,17,9.00
2019,03,29,07,18,9.00
2019,03,29,07,19,9.00
2019,03,29,07,20,9.30
2019,03,29,07,21,11.00
2019,03,29,07,22,11.00
2019,03,29,07,23,11.00
2019,03,29,07,24,11.00
2019,03,29,07,25,11.80
2019,03,29,07,26,12.00
2019,03,29,07,27,12.00
2019,03,29,07,28,12.00
2019,03,29,07,29,12.80
2019,03,29,07,30,14.00
2019,03,29,07,31,14.00
2019,03,29,07,32,14.00
2019,03,29,07,33,14.00
2019,03,29,07,34,14.30
2019,03,29,07,35,16.00
2019,03,29,07,36,16.00
2019,03,29,07,37,16.00
2019,03,29,07,38,16.00
2019,03,29,07,39,17.60
2019,03,29,07,40,18.00
2019,03,29,07,41,18.00
2019,03,29,07,42,18.00
2019,03,29,07,43,18.00
2019,03,29,07,44,18.00
2019,03,29,07,45,18.70
2019,03,29,07,46,19.00
2019,03,29,07,47,19.00
2019,03,29,07,48,19.00
2019,03,29,07,49,19.60
2019,03,29,07,50,21.00
2019,03,29,07,51,21.00
2019,03,29,07,52,21.00
2019,03,29,07,53,21.00
2019,03,29,07,54,21.10
2019,03,29,07,55,23.00
2019,03,29,07,56,23.00
2019,03,29,07,57,23.00
2019,03,29,07,58,23.00
2019,03,29,07,59,23.00
2019,03,29,08,00,24.50
2019,03,29,08,01,25.00
2019,03,29,08,02,25.20
2019,03,29,08,03,26.50
2019,03,29,08,04,27.20
2019,03,29,08,05,26.00
2019,03,29,08,06,26.00
2019,03,29,08,07,26.00
2019,03,29,08,08,26.20
2019,03,29,08,09,34.60
2019,03,29,08,10,59.40
2019,03,29,08,11,96.40
2019,03,29,08,12,120.50
2019,03,29,08,13,132.20
2019,03,29,08,14,136.60
2019,03,29,08,15,140.70
2019,03,29,08,16,142.30
2019,03,29,08,17,145.10
2019,03,29,08,18,148.40
2019,03,29,08,19,151.20
2019,03,29,08,20,154.40
2019,03,29,08,21,157.30
2019,03,29,08,22,159.90
2019,03,29,08,23,162.50
2019,03,29,08,24,165.60
2019,03,29,08,25,168.60
2019,03,29,08,26,171.50
2019,03,29,08,27,174.60
2019,03,29,08,28,177.50
2019,03,29,08,29,179.00
2019,03,29,08,30,181.30
2019,03,29,08,31,183.50
2019,03,29,08,32,186.30
2019,03,29,08,33,181.50
2019,03,29,08,34,173.30
2019,03,29,08,35,178.90
2019,03,29,08,36,136.80
2019,03,29,08,37,119.10
2019,03,29,08,38,160.30
2019,03,29,08,39,205.30
2019,03,29,08,40,216.10
2019,03,29,08,41,220.00
2019,03,29,08,42,224.10
2019,03,29,08,43,227.00
2019,03,29,08,44,230.60
2019,03,29,08,45,234.80
2019,03,29,08,46,238.50
2019,03,29,08,47,242.60
2019,03,29,08,48,245.30
2019,03,29,08,49,249.20
2019,03,29,08,50,252.80
2019,03,29,08,51,257.50
2019,03,29,08,52,260.50
2019,03,29,08,53,263.30
2019,03,29,08,54,267.20
2019,03,29,08,55,271.00
2019,03,29,08,56,275.10
2019,03,29,08,57,277.90
2019,03,29,08,58,281.30
2019,03,29,08,59,284.10
2019,03,29,09,00,287.00
2019,03,29,09,01,287.00
2019,03,29,09,02,273.90
2019,03,29,09,03,248.40
2019,03,29,09,04,277.20
2019,03,29,09,05,304.60
2019,03,29,09,06,308.90
2019,03,29,09,07,312.60
2019,03,29,09,08,315.50
2019,03,29,09,09,318.60
2019,03,29,09,10,321.60
2019,03,29,09,11,324.80
2019,03,29,09,12,327.50
2019,03,29,09,13,330.50
2019,03,29,09,14,332.80
2019,03,29,09,15,336.10
2019,03,29,09,16,340.00
2019,03,29,09,17,342.50
2019,03,29,09,18,345.00
2019,03,29,09,19,348.60
2019,03,29,09,20,352.30
2019,03,29,09,21,353.80
2019,03,29,09,22,357.20
2019,03,29,09,23,359.70
2019,03,29,09,24,361.50
2019,03,29,09,25,365.70
2019,03,29,09,26,369.30
2019,03,29,09,27,371.80
2019,03,29,09,28,374.80
2019,03,29,09,29,378.20
2019,03,29,09,30,380.70
2019,03,29,09,31,382.50
2019,03,29,09,32,386.60
2019,03,29,09,33,388.60
2019,03,29,09,34,392.60
2019,03,29,09,35,395.20
2019,03,29,09,36,398.10
2019,03,29,09,37,400.30
2019,03,29,09,38,403.40
2019,03,29,09,39,405.90
2019,03,29,09,40,408.50
2019,03,29,09,41,411.50
2019,03,29,09,42,413.80
2019,03,29,09,43,416.60
2019,03,29,09,44,419.40
2019,03,29,09,45,421.50
2019,03,29,09,46,424.00
2019,03,29,09,47,427.30
2019,03,29,09,48,429.80
2019,03,29,09,49,432.80
2019,03,29,09,50,434.00
2019,03,29,09,51,436.60
2019,03,29,09,52,440.40
2019,03,29,09,53,442.80
2019,03,29,09,54,446.60
2019,03,29,09,55,450.50
2019,03,29,09,56,453.30
2019,03,29,09,57,456.00
2019,03,29,09,58,458.30
2019,03,29,09,59,461.30
2019,03,29,10,00,464.00
2019,03,29,10,01,468.20
2019,03,29,10,02,470.10
2019,03,29,10,03,473.80
2019,03,29,10,04,476.60
2019,03,29,10,05,479.30
2019,03,29,10,06,481.50
2019,03,29,10,07,483.00
2019,03,29,10,08,487.50
2019,03,29,10,09,490.60
2019,03,29,10,10,492.80
2019,03,29,10,11,495.60
2019,03,29,10,12,498.30
2019,03,29,10,13,500.50
2019,03,29,10,14,503.80
2019,03,29,10,15,508.00
2019,03,29,10,16,509.10
2019,03,29,10,17,512.40
2019,03,29,10,18,514.10
2019,03,29,10,19,516.40
2019,03,29,10,20,519.30
2019,03,29,10,21,522.00
2019,03,29,10,22,526.20
2019,03,29,10,23,527.50
2019,03,29,10,24,530.70
2019,03,29,10,25,534.60
2019,03,29,10,26,536.00
2019,03,29,10,27,539.10
2019,03,29,10,28,541.00
2019,03,29,10,29,543.30
2019,03,29,10,30,545.60
2019,03,29,10,31,547.40
2019,03,29,10,32,549.10
2019,03,29,10,33,552.60
2019,03,29,10,34,554.80
2019,03,29,10,35,558.70
2019,03,29,10,36,563.00
2019,03,29,10,37,563.30
2019,03,29,10,38,564.80
2019,03,29,10,39,568.20
2019,03,29,10,40,570.70
2019,03,29,10,41,572.60
2019,03,29,10,42,574.80
2019,03,29,10,43,578.00
2019,03,29,10,44,578.50
2019,03,29,10,45,582.10
2019,03,29,10,46,586.10
2019,03,29,10,47,587.00
2019,03,29,10,48,588.50
2019,03,29,10,49,590.90
2019,03,29,10,50,594.60
2019,03,29,10,51,598.30
2019,03,29,10,52,599.80
2019,03,29,10,53,602.10
2019,03,29,10,54,604.30
2019,03,29,10,55,605.80
2019,03,29,10,56,609.70
2019,03,29,10,57,612.20
2019,03,29,10,58,614.10
2019,03,29,10,59,617.00
2019,03,29,11,00,611.50
2019,03,29,11,01,610.60
2019,03,29,11,02,617.80
2019,03,29,11,03,621.80
2019,03,29,11,04,624.30
2019,03,29,11,05,626.90
2019,03,29,11,06,629.00
2019,03,29,11,07,631.00
2019,03,29,11,08,633.00
2019,03,29,11,09,634.50
2019,03,29,11,10,636.00
2019,03,29,11,11,638.30
2019,03,29,11,12,640.00
2019,03,29,11,13,641.20
2019,03,29,11,14,643.00
2019,03,29,11,15,645.60
2019,03,29,11,16,649.40
2019,03,29,11,17,650.10
2019,03,29,11,18,652.30
2019,03,29,11,19,654.60
2019,03,29,11,20,656.00
2019,03,29,11,21,656.50
2019,03,29,11,22,658.30
2019,03,29,11,23,659.00
2019,03,29,11,24,662.70
2019,03,29,11,25,663.50
2019,03,29,11,26,666.60
2019,03,29,11,27,668.80
2019,03,29,11,28,670.50
2019,03,29,11,29,673.60
2019,03,29,11,30,666.10
2019,03,29,11,31,629.40
2019,03,29,11,32,637.90
2019,03,29,11,33,650.60
2019,03,29,11,34,648.20
2019,03,29,11,35,658.70
2019,03,29,11,36,683.90
2019,03,29,11,37,696.00
2019,03,29,11,38,693.30
2019,03,29,11,39,694.30
2019,03,29,11,40,696.00
2019,03,29,11,41,696.00
2019,03,29,11,42,696.00
2019,03,29,11,43,698.60
2019,03,29,11,44,698.40
2019,03,29,11,45,699.80
2019,03,29,11,46,698.50
2019,03,29,11,47,702.10
2019,03,29,11,48,705.00
2019,03,29,11,49,706.00
2019,03,29,11,50,707.00
2019,03,29,11,51,707.00
2019,03,29,11,52,709.70
2019,03,29,11,53,708.30
2019,03,29,11,54,710.50
2019,03,29,11,55,712.80
2019,03,29,11,56,714.00
2019,03,29,11,57,714.70
2019,03,29,11,58,715.00
2019,03,29,11,59,718.70
2019,03,29,12,00,722.60
2019,03,29,12,01,723.50
2019,03,29,12,02,698.90
2019,03,29,12,03,689.90
2019,03,29,12,04,709.00
2019,03,29,12,05,683.60
2019,03,29,12,06,703.70
2019,03,29,12,07,712.50
2019,03,29,12,08,726.60
2019,03,29,12,09,714.40
2019,03,29,12,10,703.70
2019,03,29,12,11,712.00
2019,03,29,12,12,718.90
2019,03,29,12,13,726.10
2019,03,29,12,14,727.10
2019,03,29,12,15,653.30
2019,03,29,12,16,570.80
2019,03,29,12,17,534.50
2019,03,29,12,18,558.10
2019,03,29,12,19,564.00
2019,03,29,12,20,694.30
2019,03,29,12,21,743.20
2019,03,29,12,22,761.60
2019,03,29,12,23,762.20
2019,03,29,12,24,761.00
2019,03,29,12,25,759.70
2019,03,29,12,26,758.20
2019,03,29,12,27,756.20
2019,03,29,12,28,756.30
2019,03,29,12,29,758.80
2019,03,29,12,30,759.70
2019,03,29,12,31,759.60
2019,03,29,12,32,762.30
2019,03,29,12,33,764.60
2019,03,29,12,34,763.20
2019,03,29,12,35,764.40
2019,03,29,12,36,760.50
2019,03,29,12,37,758.60
2019,03,29,12,38,755.80
2019,03,29,12,39,752.60
2019,03,29,12,40,753.50
2019,03,29,12,41,755.90
2019,03,29,12,42,756.90
2019,03,29,12,43,749.90
2019,03,29,12,44,750.00
2019,03,29,12,45,756.70
2019,03,29,12,46,759.00
2019,03,29,12,47,759.00
2019,03,29,12,48,762.80
2019,03,29,12,49,766.00
2019,03,29,12,50,770.00
2019,03,29,12,51,774.60
2019,03,29,12,52,783.10
2019,03,29,12,53,782.70
2019,03,29,12,54,779.60
2019,03,29,12,55,775.40
2019,03,29,12,56,772.20
2019,03,29,12,57,768.60
2019,03,29,12,58,769.20
2019,03,29,12,59,767.00
2019,03,29,13,00,768.60
2019,03,29,13,01,770.00
2019,03,29,13,02,766.60
2019,03,29,13,03,769.40
2019,03,29,13,04,766.00
2019,03,29,13,05,766.80
2019,03,29,13,06,766.40
2019,03,29,13,07,767.00
2019,03,29,13,08,766.40
2019,03,29,13,09,765.30
2019,03,29,13,10,770.00
2019,03,29,13,11,769.40
2019,03,29,13,12,768.00
2019,03,29,13,13,768.00
2019,03,29,13,14,769.30
2019,03,29,13,15,772.30
2019,03,29,13,16,775.90
2019,03,29,13,17,755.20
2019,03,29,13,18,724.40
2019,03,29,13,19,642.90
2019,03,29,13,20,662.90
2019,03,29,13,21,711.70
2019,03,29,13,22,775.00
2019,03,29,13,23,780.50
2019,03,29,13,24,774.20
2019,03,29,13,25,770.00
2019,03,29,13,26,769.20
2019,03,29,13,27,767.00
2019,03,29,13,28,766.00
2019,03,29,13,29,767.50
2019,03,29,13,30,766.20
2019,03,29,13,31,766.60
2019,03,29,13,32,771.90
2019,03,29,13,33,760.10
2019,03,29,13,34,717.10
2019,03,29,13,35,691.20
2019,03,29,13,36,699.30
2019,03,29,13,37,720.40
2019,03,29,13,38,698.20
2019,03,29,13,39,712.00
2019,03,29,13,40,697.10
2019,03,29,13,41,713.80
2019,03,29,13,42,735.30
2019,03,29,13,43,750.60
2019,03,29,13,44,752.60
2019,03,29,13,45,685.60
2019,03,29,13,46,711.80
2019,03,29,13,47,714.80
2019,03,29,13,48,746.10
2019,03,29,13,49,754.20
2019,03,29,13,50,753.50
2019,03,29,13,51,718.00
2019,03,29,13,52,710.20
2019,03,29,13,53,698.80
2019,03,29,13,54,724.80
2019,03,29,13,55,721.20
2019,03,29,13,56,717.00
2019,03,29,13,57,723.90
2019,03,29,13,58,740.00
2019,03,29,13,59,739.00
2019,03,29,14,00,742.90
2019,03,29,14,01,735.30
2019,03,29,14,02,720.90
2019,03,29,14,03,720.80
2019,03,29,14,04,732.50
2019,03,29,14,05,739.30
2019,03,29,14,06,738.60
2019,03,29,14,07,741.40
2019,03,29,14,08,740.80
2019,03,29,14,09,743.00
2019,03,29,14,10,744.00
2019,03,29,14,11,744.00
2019,03,29,14,12,742.20
2019,03,29,14,13,742.30
2019,03,29,14,14,744.00
2019,03,29,14,15,743.20
2019,03,29,14,16,740.90
2019,03,29,14,17,740.00
2019,03,29,14,18,741.60
2019,03,29,14,19,719.20
2019,03,29,14,20,655.40
2019,03,29,14,21,649.20
2019,03,29,14,22,650.10
2019,03,29,14,23,702.80
2019,03,29,14,24,733.10
2019,03,29,14,25,735.80
2019,03,29,14,26,737.00
2019,03,29,14,27,736.40
2019,03,29,14,28,733.00
2019,03,29,14,29,732.20
2019,03,29,14,30,729.40
2019,03,29,14,31,725.30
2019,03,29,14,32,725.60
2019,03,29,14,33,724.20
2019,03,29,14,34,723.70
2019,03,29,14,35,722.50
2019,03,29,14,36,719.80
2019,03,29,14,37,711.80
2019,03,29,14,38,714.60
2019,03,29,14,39,713.00
2019,03,29,14,40,707.60
2019,03,29,14,41,705.60
2019,03,29,14,42,695.80
2019,03,29,14,43,700.60
2019,03,29,14,44,713.50
2019,03,29,14,45,710.70
2019,03,29,14,46,707.70
2019,03,29,14,47,707.80
2019,03,29,14,48,705.30
2019,03,29,14,49,705.20
2019,03,29,14,50,700.60
2019,03,29,14,51,699.00
2019,03,29,14,52,695.40
2019,03,29,14,53,694.00
2019,03,29,14,54,695.80
2019,03,29,14,55,695.40
2019,03,29,14,56,693.00
2019,03,29,14,57,692.20
2019,03,29,14,58,688.80
2019,03,29,14,59,686.30
2019,03,29,15,00,686.00
2019,03,29,15,01,685.80
2019,03,29,15,02,682.30
2019,03,29,15,03,682.90
2019,03,29,15,04,680.00
2019,03,29,15,05,679.50
2019,03,29,15,06,679.70
2019,03,29,15,07,676.00
2019,03,29,15,08,673.20
2019,03,29,15,09,674.40
2019,03,29,15,10,670.20
2019,03,29,15,11,668.00
2019,03,29,15,12,668.00
2019,03,29,15,13,666.70
2019,03,29,15,14,664.40
2019,03,29,15,15,663.90
2019,03,29,15,16,661.00
2019,03,29,15,17,660.50
2019,03,29,15,18,658.20
2019,03,29,15,19,655.40
2019,03,29,15,20,652.70
2019,03,29,15,21,652.00
2019,03,29,15,22,650.10
2019,03,29,15,23,647.00
2019,03,29,15,24,647.00
2019,03,29,15,25,646.20
2019,03,29,15,26,643.40
2019,03,29,15,27,640.70
2019,03,29,15,28,640.00
2019,03,29,15,29,638.20
2019,03,29,15,30,637.50
2019,03,29,15,31,634.40
2019,03,29,15,32,631.40
2019,03,29,15,33,629.00
2019,03,29,15,34,629.00
2019,03,29,15,35,626.70
2019,03,29,15,36,624.00
2019,03,29,15,37,620.70
2019,03,29,15,38,618.40
2019,03,29,15,39,617.00
2019,03,29,15,40,614.80
2019,03,29,15,41,612.30
2019,03,29,15,42,608.80
2019,03,29,15,43,607.90
2019,03,29,15,44,605.50
2019,03,29,15,45,603.60
2019,03,29,15,46,604.20
2019,03,29,15,47,602.00
2019,03,29,15,48,599.70
2019,03,29,15,49,596.60
2019,03,29,15,50,596.00
2019,03,29,15,51,593.70
2019,03,29,15,52,591.20
2019,03,29,15,53,589.00
2019,03,29,15,54,587.90
2019,03,29,15,55,585.00
2019,03,29,15,56,582.40
2019,03,29,15,57,581.80
2019,03,29,15,58,578.30
2019,03,29,15,59,579.50
2019,03,29,16,00,577.60
2019,03,29,16,01,577.60
2019,03,29,16,02,577.30
2019,03,29,16,03,575.40
2019,03,29,16,04,575.10
2019,03,29,16,05,576.70
2019,03,29,16,06,575.00
2019,03,29,16,07,574.20
2019,03,29,16,08,572.00
2019,03,29,16,09,571.00
2019,03,29,16,10,570.20
2019,03,29,16,11,568.20
2019,03,29,16,12,565.50
2019,03,29,16,13,561.90
2019,03,29,16,14,557.10
2019,03,29,16,15,550.20
2019,03,29,16,16,527.40
2019,03,29,16,17,522.70
2019,03,29,16,18,525.80
2019,03,29,16,19,529.60
2019,03,29,16,20,531.10
2019,03,29,16,21,526.60
2019,03,29,16,22,524.00
2019,03,29,16,23,520.00
2019,03,29,16,24,517.50
2019,03,29,16,25,513.50
2019,03,29,16,26,511.90
2019,03,29,16,27,504.70
2019,03,29,16,28,465.90
2019,03,29,16,29,418.00
2019,03,29,16,30,418.00
2019,03,29,16,31,117.50
2019,03,29,16,32,44.20
2019,03,29,16,33,59.20
2019,03,29,16,34,97.20
2019,03,29,16,35,111.20
2019,03,29,16,36,83.80
2019,03,29,16,37,55.20
2019,03,29,16,38,46.70
2019,03,29,16,39,56.80
2019,03,29,16,40,60.10
2019,03,29,16,41,42.80
2019,03,29,16,42,40.00
2019,03,29,16,43,41.00
2019,03,29,16,44,42.00
2019,03,29,16,45,42.00
2019,03,29,16,46,42.00
2019,03,29,16,47,50.10
2019,03,29,16,48,67.00
2019,03,29,16,49,58.60
2019,03,29,16,50,44.00
2019,03,29,16,51,40.70
2019,03,29,16,52,43.10
2019,03,29,16,53,48.60
2019,03,29,16,54,56.00
2019,03,29,16,55,56.00
2019,03,29,16,56,119.90
2019,03,29,16,57,193.00
2019,03,29,16,58,181.00
2019,03,29,16,59,325.80
2019,03,29,17,00,322.60
2019,03,29,17,01,318.90
2019,03,29,17,02,383.50
2019,03,29,17,03,333.80
2019,03,29,17,04,233.60
2019,03,29,17,05,223.70
2019,03,29,17,06,241.00
2019,03,29,17,07,326.20
2019,03,29,17,08,331.10
2019,03,29,17,09,384.10
2019,03,29,17,10,390.50
2019,03,29,17,11,376.20
2019,03,29,17,12,366.00
2019,03,29,17,13,366.00
2019,03,29,17,14,103.80
2019,03,29,17,15,74.00